Home > Weather > Idaho Falls > Past weeks

Flag for USA Weather for the Past 2 Weeks in Idaho Falls, Idaho, USA

Now
61 °F

Clear.


Feels Like: 61 °F
Forecast: 53 / 71 °F
Wind: 3 mph from East

Location: Fanning Field

Current Time: May 6, 2016 at 12:06:37 AM

Latest Report: May 5, 2016 at 10:53 PM


Visibility: 9 mi

Pressure: 29.77 "Hg (25.14 "Hg at 1429m altitude)

Humidity: 42%

Dew Point: 38 °F

Location of Idaho FallsLocation

Historic Weather in Idaho Falls — Graph

°F

Idaho Falls Temperature Yesterday

Maximum temperature yesterday: 82 °F (at 2:53 PM)
Minimum temperature yesterday: 45 °F (at 3:53 AM)
Average temperature yesterday: 64 °F

High & Low Weather Summary for the Past Weeks

 TemperatureHumidityPressure
High82 °F (May 5, 2:53 PM)97% (Apr 24, 3:53 AM)30.23 "Hg (Apr 24, 3:53 AM)
Low28 °F (May 2, 5:53 AM)12% (Apr 22, 1:53 PM)29.56 "Hg (Apr 23, 4:53 AM)
Average51 °F52%29.90 "Hg
* Reported Apr 20 9:53 PM — May 5 9:53 PM, Idaho Falls, Weather by CustomWeather, © 2016

Note: Actual official high and low records may vary slightly from our data, if they occured in-between our weather recording intervals... More about our weather records

Advertising

Idaho Falls Weather History for the Previous 24 Hours

Scroll right to see more
 ConditionsComfort  
Time TempWeatherWind HumidityBarometerVisibility
9:53 PM
Thu, May 5
70 °FSunny.5 mph23%29.75 "Hg10 mi
8:53 PM72 °FPartly sunny.16 mph24%29.76 "Hg10 mi
7:53 PM73 °FPartly sunny.3 mph26%29.75 "Hg10 mi
6:53 PM75 °FPartly sunny.7 mph24%29.76 "Hg10 mi
5:53 PM80 °FScattered clouds.15 mph15%29.75 "Hg10 mi
4:53 PM80 °FPartly sunny.8 mph17%29.76 "Hg10 mi
3:53 PM82 °FPartly sunny.12 mph13%29.78 "Hg10 mi
2:53 PM82 °FScattered clouds.9 mph12%29.80 "Hg10 mi
1:53 PM79 °FBroken clouds.No wind22%29.82 "Hg10 mi
12:53 PM74 °FPassing clouds.5 mph28%29.85 "Hg10 mi
11:53 AM72 °FPassing clouds.No wind27%29.87 "Hg10 mi
10:53 AM67 °FPassing clouds.7 mph42%29.89 "Hg10 mi
9:53 AM64 °FPassing clouds.7 mph47%29.88 "Hg10 mi
8:53 AM57 °FScattered clouds.7 mph55%29.90 "Hg10 mi
7:53 AM49 °FPassing clouds.7 mph69%29.91 "Hg10 mi
6:53 AM45 °FPassing clouds.7 mph71%29.90 "Hg10 mi
5:53 AM46 °FClear.6 mph68%29.89 "Hg10 mi
4:53 AM48 °FClear.5 mph63%29.88 "Hg10 mi
3:53 AM45 °FPassing clouds.5 mph71%29.89 "Hg10 mi
2:53 AM46 °FPassing clouds.5 mph71%29.90 "Hg10 mi
1:53 AM49 °FClear.5 mph64%29.90 "Hg10 mi
12:53 AM51 °FClear.6 mph61%29.91 "Hg10 mi
Weather by CustomWeather, © 2016

See weather overviewHow to use our weather pages